Regional Weather Roundup
Issued by NWS State College, PA

Home | Current Version | Previous Version | Graphics & Text | Print | Product List | Glossary On
Versions: 1 2 3 4 5 6 7 8 9 10 11 12 13 14 15 16 17 18 19 20 21 22 23 24 25 26 27 28 29 30 31 32 33 34 35 36 37 38 39 40 41 42 43 44 45 46 47 48 49 50
000
ASUS41 KCTP 271503
RWRCTP

REGIONAL WEATHER ROUNDUP
NATIONAL WEATHER SERVICE STATE COLLEGE PA
1100 AM EDT FRI MAR 27 2015

Note: "fair" indicates few or no clouds below 12,000 feet with no
significant weather and/or obstructions to visibility.

* = STATION THAT DOES NOT REPORT PRECIPITATION /E.G. RAIN...SNOW...ETC/
    THUNDER OR FOG.

PAZ002>004-007>009-013>016-020>023-029>032-271600-
WESTERN PENNSYLVANIA

CITY           SKY/WX    TMP DP  RH WIND       PRES   REMARKS
ERIE           FLURRIES  28  22  78 W12       29.92R
MEADVILLE      FLURRIES  27  22  81 W7        29.87S
FRANKLIN*      CLOUDY    28  21  74 NW9       29.86F
NEW CASTLE     FLURRIES  30  26  85 NW10      29.91R
BEAVER COUNTY  CLOUDY    30  27  86 NW9       29.88R
BUTLER*        CLOUDY    32  27  80 N6        29.88S
PITTSBURGH INT LGT SNOW  33  27  78 N14       29.87R
PITTSBURGH     CLOUDY    34  23  64 NW13      29.85R
INDIANA*       CLOUDY    36  32  87 N8        29.86S
LATROBE        CLOUDY    36  30  80 CALM      29.86R
WASHINGTON CO* CLOUDY    36  27  69 NW8       29.88S
$$

PAZ004>006-010>012-017>019-024>028-033>037-041-042-045-046-049>053-271600-
CENTRAL PENNSYLVANIA

CITY           SKY/WX    TMP DP  RH WIND       PRES   REMARKS
BRADFORD       LGT SNOW  29  22  75 NW13      29.78S
DUBOIS         CLOUDY    33  23  66 NW9       29.79F
CLEARFIELD     CLOUDY    35  25  66 NW8       29.80F
JOHNSTOWN      CLOUDY    32  25  75 NW10      29.77R
ALTOONA        CLOUDY    37  23  56 NW9       29.81R
STATE COLLEGE  CLOUDY    37  25  60 NW12      29.80S
WILLIAMSPORT   CLOUDY    41  21  44 N12G17    29.80F
SELINSGROVE    CLOUDY    42  24  49 N15       29.81S
FT INDIANTOWN  CLOUDY    41  28  60 VRB2      29.80R
CAPITAL CITY   CLOUDY    43  27  53 NW12      29.81R
HARRISBURG     CLOUDY    43  30  60 N8        29.81R
YORK           CLOUDY    42  30  62 NW8       29.80R
$$

PAZ038>040-043-044-047-048-054-055-060>062-067>071-271600-
EASTERN PENNSYLVANIA

CITY           SKY/WX    TMP DP  RH WIND       PRES   REMARKS
SCRANTON       CLOUDY    39  28  64 NW13      29.76F
MOUNT POCONO   CLOUDY    34  26  72 N8        29.72R
ALLENTOWN      CLOUDY    42  31  64 N6        29.78R
QUAKERTOWN*    CLOUDY    39  32  75 N7        29.78F
READING        CLOUDY    42  28  57 NW9       29.79F
LANCASTER      CLOUDY    42  30  62 N8        29.81R
COATESVILLE    CLOUDY    41  32  70 N8        29.79S
POTTSTOWN      CLOUDY    42  33  70 NW7       29.80S
BLUE BELL      CLOUDY    41  36  81 CALM      29.77F
DOYLESTOWN     CLOUDY    40  36  86 N5        29.77R
WILLOW GROVE   NOT AVBL
NORTH PHILA    CLOUDY    42  35  76 NW6       29.80R
PHILADELPHIA   CLOUDY    42  35  76 NW7       29.79F
$$


USA.gov is the U.S. government's official web portal to all federal, state and local government web resources and services.